Theta_e
312 317 319 319 316 315 317 322 323 325 323 323 323 324 318 316 311 310 311 313 314 314 312 314 315 316 318 318 317 317 317 317 317 316 313 311 309 308 307 306 305 303 303 302
314 316 314 314 315 314 314 316 319 320 318 327 321 323 322 316 313 311 311 313 314 313 312 314 315 316 317 317 317 317 317 317 316 316 314 311 309 308 306 304 303 302 301 300
314 315 313 314 317 317 315 315 317 318 313 325 324 325 319 317 312 309 311 312 314 313 313 314 315 315 317 317 317 317 317 317 317 316 313 310 308 306 304 303 302 300 300 300
312 312 314 314 316 317 318 316 317 318 314 319 313 319 320 317 313 310 309 311 313 313 313 314 315 314 316 317 317 317 317 317 317 316 313 310 307 305 304 302 301 301 300 300
312 313 313 315 315 316 317 316 318 319 317 315 312 312 310 315 318 313 310 310 313 313 313 314 314 315 315 317 317 317 317 317 316 315 314 310 307 305 305 302 301 300 301 301
310 311 313 313 314 316 315 316 316 317 318 320 316 312 313 311 315 312 310 309 312 313 312 314 315 315 314 316 316 316 316 315 315 314 312 310 307 305 303 301 301 301 302 301
311 311 310 315 316 317 319 317 320 318 320 321 314 313 315 310 309 312 311 309 312 313 312 313 314 314 313 313 313 313 313 313 313 312 312 308 306 304 302 301 302 302 301 299
310 314 312 308 316 318 319 317 318 319 317 314 310 313 313 310 309 310 311 310 312 312 312 313 313 313 312 310 310 310 310 310 309 307 306 305 304 303 303 302 302 300 299 297
310 312 309 308 311 316 318 319 315 318 314 312 311 309 309 309 309 309 309 310 312 312 312 313 312 313 310 308 308 308 307 306 306 306 305 304 303 303 302 300 298 297 295 294
307 310 308 308 309 310 314 315 319 317 322 317 312 311 313 309 309 309 309 311 312 311 311 311 312 311 309 307 307 306 305 305 304 304 303 302 302 300 298 297 296 294 293 292
308 308 308 307 309 312 310 314 313 316 316 316 311 313 308 309 309 309 309 311 311 311 311 312 311 310 308 306 306 305 304 304 303 302 301 300 298 297 296 295 293 292 292 292
309 307 308 308 307 307 308 310 312 316 314 316 309 311 306 305 306 308 310 311 311 311 311 311 309 308 306 305 304 304 304 303 302 300 299 297 295 294 293 293 293 292 291 290
308 307 305 309 308 307 308 309 311 309 308 310 316 313 306 305 308 308 310 310 311 311 310 309 307 306 304 303 302 303 302 300 299 298 297 295 293 293 293 292 291 290 290 289
310 307 309 311 309 308 308 308 308 309 307 309 312 311 308 308 309 308 309 310 310 310 309 307 305 303 302 301 300 300 299 298 297 296 294 293 293 292 291 290 290 289 289 289
310 308 308 308 308 308 308 309 309 307 311 310 310 309 307 308 309 308 308 309 310 309 306 305 303 300 299 297 297 296 296 295 294 293 293 292 291 290 290 289 289 289 288 288
306 307 308 305 308 307 308 308 310 309 309 310 309 308 307 304 306 308 309 310 309 307 304 303 301 298 297 295 294 294 293 293 293 292 291 290 289 289 289 288 288 288 288 288
307 306 306 309 307 308 308 308 308 309 309 309 309 309 304 308 309 309 309 310 307 305 302 300 298 296 294 293 293 293 292 292 291 290 289 289 289 288 288 288 288 288 288 287
307 307 307 308 307 311 308 307 308 308 309 309 309 306 306 308 308 308 308 306 304 301 299 296 295 293 291 292 292 292 291 290 290 289 289 288 288 288 288 287 287 287 287 286
305 306 311 312 308 307 306 305 308 308 309 308 308 304 304 305 304 302 303 302 299 296 295 293 291 290 290 291 291 290 289 289 288 288 288 288 287 287 287 287 287 286 286 286
304 306 309 307 312 311 307 305 305 307 309 307 308 305 306 307 309 303 298 296 293 291 291 289 289 289 290 290 289 289 288 288 288 288 287 287 287 287 286 286 286 286 285 286
307 306 310 309 307 306 304 304 304 308 307 305 306 305 306 306 303 297 294 291 290 289 288 288 288 288 288 288 288 288 287 287 287 287 287 287 286 286 286 286 285 286 286 285
308 309 309 305 302 307 296 304 306 302 300 303 305 305 299 296 295 291 289 289 288 288 287 287 287 287 287 288 288 287 287 287 287 286 286 286 286 286 285 285 285 285 285 285
306 308 306 307 305 295 295 297 297 298 299 300 299 297 295 291 290 289 288 287 287 287 287 287 286 287 287 287 287 286 286 286 286 286 286 285 285 285 285 285 285 285 285 285
300 298 297 298 294 293 293 293 294 295 296 296 294 292 291 289 289 288 287 287 287 286 286 286 286 286 286 286 286 286 286 286 286 285 284 284 284 285 285 285 284 284 285 284
297 294 292 291 292 292 292 291 292 291 291 291 290 290 289 288 288 287 287 286 286 286 286 286 285 285 286 286 286 286 285 285 284 284 284 284 284 284 283 283 283 284 284 283
295 297 295 295 292 293 291 290 290 290 289 289 288 288 287 287 287 286 286 286 286 286 286 285 286 285 285 285 285 285 285 284 283 283 283 284 283 283 282 283 283 282 282 282
Wind_Speed
6 6 14 19 17 4 4 2 7 6 11 13 19 20 10 12 13 10 13 14 14 15 12 25 32 32 32 30 29 29 26 28 28 30 29 27 25 20 16 14 12 11 12 10
3 17 12 7 9 8 9 6 7 4 9 16 15 21 20 15 17 18 19 18 17 13 12 20 29 33 32 34 31 29 27 29 29 28 26 25 23 18 17 14 12 11 11 11
14 7 20 18 15 15 14 12 7 5 3 12 9 13 13 19 18 11 17 23 21 23 19 17 24 28 33 34 33 31 30 29 27 25 25 24 21 19 18 15 13 12 10 10
14 19 6 15 18 14 15 11 11 8 6 6 10 5 17 24 19 17 18 19 23 23 19 19 24 24 31 34 33 31 30 29 27 27 29 30 29 24 18 16 14 12 10 9
10 14 21 20 21 13 8 4 8 10 12 6 7 3 7 21 25 24 24 21 24 24 24 22 24 30 32 35 33 32 30 28 27 27 31 29 25 19 20 17 15 12 9 6
20 5 15 13 18 17 8 5 9 5 4 4 14 13 6 13 31 23 22 20 23 24 22 21 30 31 30 36 33 33 32 27 27 26 26 24 25 26 22 19 16 13 10 6
10 20 4 6 16 11 5 11 3 3 3 7 9 9 16 4 13 19 22 23 22 23 23 21 21 27 28 34 36 34 31 27 24 23 23 24 28 23 22 20 17 15 12 7
7 6 20 7 10 10 18 11 5 7 6 5 6 10 12 9 5 9 17 19 20 22 21 23 22 28 29 32 37 33 31 27 26 28 29 26 23 23 21 19 15 12 8 4
8 7 4 11 5 15 8 9 9 3 3 2 5 5 5 1 3 4 17 19 22 22 22 23 22 30 31 32 35 35 32 30 30 29 27 25 25 23 20 16 12 9 5 3
4 3 4 1 5 4 16 13 5 3 3 4 4 4 6 7 9 8 16 20 20 20 21 19 20 29 30 32 36 35 34 33 31 29 27 25 23 20 17 14 11 6 3 3
5 4 3 8 10 16 4 13 5 6 4 2 1 6 3 9 8 11 12 16 21 22 20 19 19 28 31 32 35 36 35 34 31 29 27 25 21 18 14 11 7 4 3 5
26 2 4 9 2 7 5 5 16 7 6 8 4 5 4 7 8 9 14 16 17 20 19 18 21 27 28 30 33 35 35 34 31 29 26 22 19 15 11 8 4 2 4 7
16 5 2 2 5 4 10 14 21 3 3 9 11 7 5 5 8 9 17 16 18 19 19 17 16 21 24 27 30 34 35 33 30 26 23 20 16 12 9 5 2 3 5 8
15 8 10 10 5 6 6 7 6 6 4 6 19 6 2 5 8 10 15 17 18 18 19 17 15 18 24 27 30 34 33 31 28 24 21 18 14 9 6 3 1 4 7 10
15 13 11 8 4 4 5 16 19 9 17 8 6 8 12 16 16 14 15 16 19 19 18 18 16 13 24 26 29 33 32 29 26 23 18 14 10 7 4 1 3 6 9 12
10 7 15 7 3 7 5 13 14 23 12 16 3 11 3 9 10 13 17 19 19 18 18 18 17 20 23 26 28 32 30 26 23 19 16 12 9 6 2 2 5 8 11 13
8 3 5 6 6 6 6 14 20 15 18 11 12 12 8 13 18 19 19 20 19 19 18 18 18 22 24 27 32 31 28 24 21 18 14 10 7 3 1 4 7 10 11 13
12 9 3 4 5 9 10 12 14 20 17 18 10 7 16 16 10 12 16 19 19 19 18 17 21 25 27 32 33 31 26 22 18 15 11 8 4 0 4 7 9 10 12 13
13 9 4 5 5 5 4 4 10 13 18 18 15 8 9 16 12 7 11 16 18 17 15 22 27 29 33 35 33 27 23 19 15 12 9 5 0 3 6 8 9 10 11 15
6 12 10 3 11 17 2 3 3 3 12 13 19 18 20 19 9 6 14 19 17 24 29 29 31 33 35 30 27 25 20 17 14 9 5 1 2 4 6 8 8 11 13 15
8 3 13 8 6 6 3 4 3 9 6 5 20 23 23 13 4 17 19 18 24 28 30 32 31 29 30 26 25 22 18 14 9 5 2 1 3 5 6 8 10 10 12 14
10 8 6 2 3 6 4 3 6 3 6 5 17 19 19 24 23 21 21 20 21 24 28 31 28 28 24 23 22 19 15 10 6 3 2 2 4 5 7 8 8 10 13 15
6 9 6 6 5 2 4 3 5 2 4 6 18 20 27 27 25 24 22 21 19 26 25 27 28 27 22 19 18 17 12 7 5 3 2 3 5 6 6 6 9 12 13 13
3 5 5 5 3 3 5 7 9 11 12 15 20 23 25 27 25 24 21 18 16 24 24 26 26 23 20 16 14 12 8 6 4 4 4 5 6 5 7 8 11 12 13 13
3 4 4 5 2 7 9 7 13 17 18 21 20 21 24 26 21 20 19 17 22 23 23 23 22 21 18 15 12 9 7 4 5 4 4 5 5 7 11 11 10 11 11 16
5 2 2 3 7 6 8 10 16 20 20 21 24 20 19 22 22 20 16 23 23 22 23 22 22 20 16 13 11 8 5 4 4 4 4 5 6 10 10 13 11 13 12 12
Wind_Direction
190 199 214 198 218 11 317 240 225 215 175 176 194 214 225 203 169 186 187 180 180 175 173 166 170 170 167 169 167 166 161 159 160 154 147 145 140 143 141 137 133 126 123 120
167 223 215 241 217 215 257 270 285 266 180 192 198 213 215 219 211 189 189 184 179 168 163 163 163 167 173 170 172 171 166 161 163 164 161 159 153 150 145 139 130 130 123 120
203 169 212 207 218 207 220 233 234 250 116 206 183 245 221 231 230 210 200 185 180 175 168 169 166 168 172 171 174 172 169 167 167 168 163 158 156 148 141 142 135 130 131 121
226 234 227 208 215 200 214 214 251 244 148 213 203 249 214 224 225 214 209 193 182 175 169 166 167 167 170 175 176 173 170 169 172 178 174 167 160 155 157 150 144 138 131 121
215 193 209 221 230 201 223 157 292 253 208 337 191 268 269 197 221 219 207 201 181 175 169 169 169 168 171 175 177 176 174 173 170 173 177 170 164 165 158 155 147 142 134 125
213 229 201 214 222 215 141 133 246 110 90 224 225 198 233 195 206 205 202 194 179 174 169 166 165 163 171 177 176 173 174 170 167 168 171 171 165 157 157 155 153 149 149 157
213 226 218 175 203 185 127 120 219 98 177 235 206 205 244 260 200 198 185 185 174 168 164 163 160 163 162 169 170 168 169 164 169 171 173 173 168 165 160 159 154 157 158 169
184 212 204 175 199 177 171 168 175 175 190 227 169 221 230 231 229 210 190 173 159 165 166 164 161 161 159 160 163 165 166 163 163 159 158 161 162 157 156 154 157 160 170 197
182 235 146 169 171 152 172 201 195 19 238 140 206 255 295 295 135 144 158 156 164 165 166 161 154 157 156 155 160 165 163 158 156 157 154 152 155 158 155 153 156 158 171 217
263 211 201 162 128 177 173 168 179 140 229 205 244 219 218 205 206 180 167 167 161 157 157 152 153 154 153 154 161 164 163 158 156 155 155 153 155 156 152 152 156 167 194 258
216 157 268 134 203 196 163 172 160 156 221 202 220 252 230 228 202 170 157 159 153 152 151 148 149 149 148 152 159 161 162 157 154 155 155 154 154 154 152 156 159 172 244 288
217 172 175 205 230 192 247 219 185 172 197 219 151 285 341 282 187 148 140 142 143 144 145 141 142 142 144 147 154 157 160 157 154 154 155 154 152 152 151 151 162 232 291 308
209 211 91 63 327 249 207 209 199 155 99 194 210 234 341 65 116 140 140 141 140 137 134 136 137 143 142 143 147 153 156 152 151 154 153 151 150 150 151 162 195 280 307 316
184 188 209 206 206 150 222 209 217 175 150 179 221 161 226 153 145 140 141 139 140 138 138 137 137 138 136 138 141 147 150 150 151 153 153 150 151 155 159 174 261 314 320 321
225 208 200 227 185 209 224 200 191 203 214 195 202 185 194 188 173 160 143 135 139 141 141 141 138 133 132 131 137 144 148 148 152 150 150 149 150 152 156 204 314 318 320 323
306 238 211 234 148 209 222 212 211 217 212 240 244 235 180 138 127 149 152 149 147 145 140 138 135 134 135 136 138 144 148 149 153 147 145 148 150 153 173 297 319 323 325 326
271 250 141 217 153 86 294 204 208 220 225 194 201 222 147 157 164 163 157 153 148 144 141 139 137 136 137 140 144 146 148 148 147 145 144 147 154 164 301 325 324 328 327 324
255 286 295 156 107 205 259 181 199 206 224 209 222 174 176 171 149 147 151 144 141 139 136 133 133 132 135 140 145 144 145 146 143 141 141 143 149 182 323 326 327 326 326 330
213 241 233 183 220 305 250 192 177 180 231 216 203 149 129 118 94 39 133 133 131 129 125 124 126 126 131 139 142 141 141 141 140 137 136 137 2 334 328 325 326 329 330 331
168 221 217 162 210 229 177 236 202 101 249 195 186 156 147 143 154 167 139 123 115 115 121 119 121 125 131 137 141 139 138 138 134 137 127 87 345 329 327 327 327 331 333 332
176 160 209 217 210 268 275 260 295 165 244 195 168 156 154 162 143 131 120 110 113 115 115 116 119 121 130 137 140 134 134 130 129 124 115 17 347 335 332 326 329 332 333 331
164 181 196 152 106 268 15 308 198 286 310 186 149 145 117 117 116 116 112 114 113 113 113 116 115 121 130 137 136 129 124 127 130 118 82 18 351 342 332 328 333 336 336 332
158 179 170 176 185 307 329 340 331 48 78 94 114 122 121 118 119 119 117 114 113 114 113 118 120 121 122 128 131 125 126 133 123 109 66 14 352 345 342 346 343 338 336 334
52 7 106 144 344 34 12 45 64 76 90 101 109 118 119 119 120 117 115 115 114 115 115 121 121 120 120 122 122 121 128 127 114 79 35 12 5 11 4 353 342 339 342 346
347 16 103 82 71 83 40 65 94 91 94 97 97 107 114 114 111 111 110 110 111 113 118 123 122 123 124 125 119 118 120 106 80 51 36 29 25 13 348 345 348 344 339 333
344 14 158 208 157 112 117 104 102 99 100 103 105 101 97 104 109 108 105 110 114 115 118 117 122 122 123 120 115 109 96 61 56 60 32 25 9 357 350 348 348 340 337 338